[[{"header":{"parameterUnit":"m.s-1","parameterCategory":2,"la1":30.2992,"la2":30.254,"lo1":-89.0895,"lo2":-89.0443,"dy":0.0025,"dx":0.0025,"nx":19,"ny":19,"refTime":"2026-04-28T03:00:00:Z","depth":"0","parameterNumber":2,"parameterNumberName":"U-component_of_CURRENTS"},"data":[0,0,0,0.2114,0.2119,0.2343,0.2344,0.256,0.2561,0,0,0,0,0,0,0,0,0,0,0,0.2026,0.2027,0.2114,0.2119,0.2343,0.2344,0.256,0.2561,0,0,0,0,0,0,0,0,0,0,0,0.2026,0.2027,0.2028,0.212,0.2343,0.2344,0.2559,0.2411,0,0,0,0,0,0,0,0,0,0,0.2204,0.2122,0.2027,0.2028,0.2121,0.2342,0.2344,0.2405,0.2421,0.2434,0,0.2456,0,0.2511,0.2573,0.2573,0,0,0,0.2134,0.2109,0.2174,0.2028,0.2123,0.2342,0.2246,0.2415,0.2432,0.2453,0.246,0.2469,0.2515,0.2574,0.2575,0.2611,0.261,0,0,0.2122,0.2068,0.2162,0.2184,0.2165,0.2239,0.2253,0.2426,0.2432,0.2461,0.2475,0.2518,0.2575,0.2576,0.2612,0.261,0,0,0,0.2076,0.2059,0.2121,0.2174,0.222,0.2245,0.2261,0.2425,0.2446,0.2478,0.2521,0.2576,0.2578,0.2613,0.2611,0.2563,0,0,0,0.2069,0.2032,0.2115,0.2086,0.2216,0.2334,0.2255,0.2434,0.2456,0.252,0.2576,0.258,0.2614,0.2612,0.2566,0.2532,0,0,0,0.2019,0.2027,0.2049,0.2082,0.2175,0.2333,0.2366,0.2441,0.2482,0.2574,0.258,0.2614,0.2612,0.2569,0.2537,0.2462,0,0,0,0.1963,0.1989,0.2047,0.2098,0.2172,0.2283,0.2366,0.2456,0.2527,0.2577,0.2613,0.2611,0.257,0.254,0.2466,0.2339,0.2311,0,0,0.1965,0.1988,0.2022,0.208,0.2158,0.2255,0.2322,0.2445,0.2493,0.2557,0.256,0.2565,0.2537,0.2462,0.2217,0.2193,0,0,0,0.2004,0.2016,0.2054,0.2116,0.221,0.2268,0.2386,0.242,0.2478,0.2525,0.2535,0.2518,0.2473,0.2404,0.2384,0.2306,0.2602,0.2602,0.2602,0.1906,0.1983,0.2022,0.2108,0.2169,0.2278,0.2325,0.2379,0.2442,0.2428,0.2458,0.2337,0.2262,0.2246,0.2167,0.244,0.244,0.244,0.2439,0.1876,0.1901,0.1977,0.2039,0.2108,0.2161,0.2257,0.2298,0.2316,0.2374,0.2333,0.233,0.2221,0.2144,0.2436,0.2436,0.2437,0.2437,0.2438,0.1791,0.1817,0.1858,0.1928,0.1982,0.208,0.2099,0.2188,0.2235,0.2228,0.2124,0.2124,0.2074,0.2191,0.2191,0.219,0.219,0.219,0.2189,0.1689,0.1736,0.1742,0.1823,0.1851,0.1897,0.2001,0.2006,0.1998,0.2035,0.2034,0.1995,0.226,0.229,0.2182,0.2183,0.2184,0.2185,0.2185,0.1633,0.1627,0.1631,0.1647,0.1698,0.1667,0.1774,0.1737,0.1751,0.1699,0.1713,0.1929,0.1925,0.194,0.1961,0.1773,0.1773,0.1773,0.1773,0.1567,0.1575,0.1539,0.1524,0.1518,0.1558,0.1438,0.1451,0.1465,0.145,0.1501,0.1529,0.155,0.1528,0.1552,0.1567,0.1284,0.1283,0.1283,0.1535,0.1524,0.1469,0.1448,0.144,0.1394,0.1264,0.1188,0.1214,0.1262,0.1412,0.1433,0.1482,0.1521,0.1501,0.1542,0.1574,0,0]},{"header":{"parameterUnit":"m.s-1","parameterCategory":2,"la1":30.2992,"la2":30.254,"lo1":-89.0895,"lo2":-89.0443,"dy":0.0025,"dx":0.0025,"nx":19,"ny":19,"refTime":"2026-04-28T03:00:00:Z","depth":"0","parameterNumber":3,"parameterNumberName":"V-component_of_CURRENTS"},"data":[0,0,0,0.0442,0.0443,0.0531,0.0531,0.0623,0.0623,0,0,0,0,0,0,0,0,0,0,0,0.0416,0.0417,0.0442,0.0444,0.0531,0.0531,0.0623,0.0623,0,0,0,0,0,0,0,0,0,0,0,0.0416,0.0416,0.0417,0.0444,0.053,0.0531,0.0622,0.0563,0,0,0,0,0,0,0,0,0,0,0.0481,0.0454,0.0416,0.0417,0.0444,0.053,0.0531,0.056,0.0567,0.0576,0,0.0593,0,0.0606,0.0629,0.0629,0,0,0,0.0449,0.0449,0.0475,0.0417,0.0445,0.053,0.0493,0.0564,0.0571,0.0584,0.0594,0.0598,0.0608,0.0629,0.063,0.0722,0.0723,0,0,0.0444,0.0429,0.047,0.048,0.0472,0.049,0.0495,0.0569,0.0575,0.0594,0.06,0.0609,0.063,0.063,0.0722,0.0722,0,0,0,0.0427,0.0426,0.0451,0.0476,0.0491,0.0492,0.0499,0.0572,0.0582,0.0601,0.061,0.063,0.0631,0.0721,0.0722,0.0792,0,0,0,0.0424,0.0416,0.0449,0.044,0.049,0.0534,0.0501,0.0577,0.0585,0.061,0.063,0.0632,0.0721,0.0722,0.0789,0.0817,0,0,0,0.0411,0.0414,0.0426,0.0439,0.0475,0.0534,0.0547,0.0579,0.0591,0.0629,0.0632,0.072,0.0721,0.0786,0.0812,0.0826,0,0,0,0.0391,0.0432,0.0426,0.0481,0.0474,0.0565,0.0547,0.0611,0.0649,0.0631,0.0721,0.0722,0.0785,0.0809,0.0824,0.0817,0.0828,0,0,0.0435,0.0436,0.0473,0.047,0.0562,0.0552,0.0649,0.0682,0.0664,0.0695,0.0698,0.079,0.0812,0.0826,0.0876,0.0885,0,0,0,0.0483,0.0509,0.0538,0.0586,0.0637,0.069,0.0718,0.0726,0.0757,0.0689,0.0791,0.0802,0.0809,0.08,0.0807,0.0838,0.0727,0.0726,0.0726,0.0521,0.0556,0.0629,0.0683,0.0736,0.0791,0.0831,0.0841,0.0823,0.0838,0.0861,0.092,0.0913,0.0918,0.0951,0.0863,0.0863,0.0863,0.0863,0.0598,0.0642,0.0693,0.0774,0.0825,0.0896,0.0944,0.0937,0.0966,0.0929,0.0931,0.0876,0.093,0.0962,0.0868,0.0867,0.0866,0.0866,0.0866,0.0618,0.0645,0.0696,0.0805,0.0897,0.0959,0.1033,0.1046,0.1021,0.104,0.0996,0.0994,0.1018,0.1031,0.1032,0.1032,0.1032,0.1032,0.1032,0.0609,0.0665,0.0734,0.0844,0.0917,0.1011,0.1084,0.1101,0.1094,0.1069,0.1068,0.1048,0.0971,0.096,0.1035,0.1035,0.1034,0.1034,0.1034,0.0636,0.0651,0.0754,0.0829,0.0996,0.1099,0.1152,0.1174,0.1165,0.1149,0.1132,0.1074,0.1044,0.1037,0.1027,0.1115,0.1115,0.1115,0.1115,0.0638,0.0657,0.0783,0.09,0.1039,0.1145,0.1228,0.1248,0.1216,0.1204,0.1185,0.116,0.1156,0.113,0.1121,0.1112,0.122,0.122,0.122,0.0661,0.0695,0.0781,0.0899,0.1067,0.1184,0.1275,0.133,0.1276,0.1228,0.1236,0.1231,0.1197,0.1187,0.1143,0.1128,0.111,0,0]}],[{"header":{"parameterUnit":"m.s-1","parameterCategory":2,"la1":30.2992,"la2":30.254,"lo1":-89.0895,"lo2":-89.0443,"dy":0.0025,"dx":0.0025,"nx":19,"ny":19,"refTime":"2026-04-28T03:00:00:Z","depth":"2","parameterNumber":2,"parameterNumberName":"U-component_of_CURRENTS"},"data":[0,0,0,0.1818,0.1821,0.1957,0.1957,0.2117,0.2118,0,0,0,0,0,0,0,0,0,0,0,0.1763,0.1763,0.1818,0.1821,0.1957,0.1957,0.2117,0.2118,0,0,0,0,0,0,0,0,0,0,0,0.1762,0.1763,0.1764,0.1822,0.1957,0.1957,0.2116,0.2017,0,0,0,0,0,0,0,0,0,0,0.1886,0.1831,0.1763,0.1764,0.1823,0.1956,0.1957,0.2012,0.2023,0.2053,0,0.2075,0,0.2107,0.2129,0.213,0,0,0,0.1817,0.1822,0.1869,0.1764,0.1824,0.1956,0.1894,0.2018,0.203,0.2068,0.2077,0.2084,0.211,0.213,0.2131,0.2241,0.2241,0,0,0.181,0.1779,0.186,0.1877,0.1861,0.189,0.1899,0.2026,0.2033,0.2078,0.2088,0.2112,0.2131,0.2133,0.2241,0.2241,0,0,0,0.1791,0.1774,0.1818,0.1869,0.1899,0.1894,0.1904,0.2027,0.2045,0.209,0.2114,0.2132,0.2134,0.2241,0.2241,0.2183,0,0,0,0.1786,0.1764,0.1814,0.1796,0.1897,0.1966,0.1902,0.2035,0.2051,0.2114,0.2132,0.2136,0.2241,0.2241,0.2184,0.2159,0,0,0,0.1756,0.1761,0.1779,0.1794,0.1857,0.1965,0.1989,0.2039,0.2067,0.213,0.2136,0.2241,0.2241,0.2185,0.2161,0.2103,0,0,0,0.1717,0.1739,0.1778,0.18,0.1856,0.1952,0.1988,0.2077,0.2133,0.2133,0.2241,0.2241,0.2186,0.2163,0.2105,0.1971,0.195,0,0,0.1721,0.1739,0.1749,0.1787,0.1842,0.1933,0.1981,0.2075,0.2137,0.2198,0.2201,0.2184,0.2162,0.2103,0.1972,0.195,0,0,0,0.1733,0.1749,0.1772,0.1809,0.1885,0.1946,0.2046,0.208,0.2147,0.2172,0.22,0.2189,0.2153,0.2078,0.2061,0.2241,0.2241,0.2241,0.2241,0.1686,0.1721,0.1745,0.1805,0.1864,0.1967,0.2016,0.2083,0.2137,0.2153,0.2153,0.2087,0.2008,0.1993,0.2168,0.2168,0.2167,0.2167,0.2167,0.1663,0.1666,0.1718,0.1759,0.1822,0.1876,0.198,0.2022,0.2056,0.211,0.2078,0.2036,0.1971,0.2163,0.2164,0.2164,0.2165,0.2165,0.2165,0.1595,0.1611,0.1634,0.1678,0.1731,0.1819,0.1844,0.1937,0.1997,0.2,0.1898,0.1898,0.2029,0.1965,0.1965,0.1965,0.1964,0.1964,0.1964,0.1509,0.1544,0.1544,0.161,0.1629,0.1673,0.1772,0.1783,0.1787,0.1823,0.1822,0.2019,0.2025,0.2018,0.1958,0.1959,0.196,0.196,0.1961,0.146,0.1453,0.1452,0.1462,0.15,0.147,0.1573,0.1542,0.1565,0.1522,0.1718,0.1726,0.1727,0.174,0.1726,0.1595,0.1595,0.1594,0.1594,0.1404,0.1409,0.1372,0.1353,0.1343,0.1375,0.1264,0.1259,0.1341,0.1378,0.1388,0.1405,0.1424,0.1411,0.1433,0.1415,0.1201,0.1201,0.12,0.1376,0.1366,0.1315,0.1288,0.127,0.1228,0.1098,0.0983,0.1027,0.1189,0.1366,0.1559,0.1613,0.1631,0.164,0.1662,0.1645,0,0]},{"header":{"parameterUnit":"m.s-1","parameterCategory":2,"la1":30.2992,"la2":30.254,"lo1":-89.0895,"lo2":-89.0443,"dy":0.0025,"dx":0.0025,"nx":19,"ny":19,"refTime":"2026-04-28T03:00:00:Z","depth":"2","parameterNumber":3,"parameterNumberName":"V-component_of_CURRENTS"},"data":[0,0,0,0.0291,0.0292,0.0348,0.0348,0.0408,0.0408,0,0,0,0,0,0,0,0,0,0,0,0.0276,0.0276,0.0291,0.0292,0.0348,0.0348,0.0408,0.0408,0,0,0,0,0,0,0,0,0,0,0,0.0276,0.0276,0.0277,0.0292,0.0348,0.0348,0.0408,0.0369,0,0,0,0,0,0,0,0,0,0,0.0316,0.03,0.0276,0.0277,0.0292,0.0348,0.0348,0.0367,0.0371,0.0379,0,0.0393,0,0.04,0.0412,0.0412,0,0,0,0.0293,0.0297,0.0315,0.0277,0.0293,0.0348,0.0323,0.0369,0.0374,0.0384,0.0393,0.0396,0.0401,0.0412,0.0413,0.0508,0.0509,0,0,0.029,0.0283,0.0311,0.0318,0.0314,0.0321,0.0325,0.0372,0.0378,0.0394,0.0397,0.0401,0.0413,0.0413,0.0508,0.0508,0,0,0,0.028,0.0281,0.0297,0.0315,0.0325,0.0323,0.0327,0.0376,0.0383,0.0398,0.0402,0.0413,0.0414,0.0507,0.0508,0.0569,0,0,0,0.0278,0.0275,0.0296,0.0292,0.0324,0.0352,0.033,0.038,0.0385,0.0402,0.0413,0.0414,0.0506,0.0508,0.0566,0.0596,0,0,0,0.0272,0.0274,0.0283,0.0292,0.0315,0.0352,0.0361,0.0381,0.0388,0.0412,0.0414,0.0506,0.0507,0.0563,0.0591,0.0605,0,0,0,0.0259,0.0294,0.0283,0.0326,0.0315,0.0392,0.0361,0.0417,0.0446,0.0413,0.0506,0.0508,0.0562,0.0588,0.0603,0.0589,0.06,0,0,0.0298,0.0298,0.0325,0.0317,0.0391,0.0384,0.0464,0.0481,0.0468,0.0488,0.0491,0.0567,0.0591,0.0605,0.0677,0.0686,0,0,0,0.0335,0.036,0.0381,0.0416,0.0456,0.0505,0.0523,0.053,0.0557,0.049,0.0581,0.0594,0.0601,0.0588,0.0595,0.0515,0.0515,0.0515,0.0515,0.0382,0.0403,0.0464,0.0505,0.0552,0.0596,0.0633,0.0645,0.0622,0.0644,0.0655,0.0723,0.0712,0.0716,0.0665,0.0665,0.0665,0.0665,0.0665,0.0455,0.0489,0.0529,0.0596,0.0638,0.0701,0.0744,0.0735,0.0763,0.073,0.0732,0.0667,0.0728,0.0671,0.067,0.0669,0.0668,0.0668,0.0668,0.0478,0.05,0.0543,0.0636,0.0716,0.0766,0.0833,0.0842,0.0822,0.0841,0.0794,0.0792,0.0743,0.0831,0.0831,0.0831,0.0831,0.0832,0.0832,0.0475,0.0523,0.0586,0.0683,0.0747,0.0828,0.0888,0.09,0.0888,0.0866,0.0865,0.0778,0.0773,0.0753,0.0835,0.0834,0.0834,0.0834,0.0833,0.0501,0.0516,0.0609,0.0677,0.0824,0.0913,0.0957,0.0967,0.0958,0.094,0.087,0.0868,0.0841,0.0834,0.0815,0.0909,0.0909,0.0909,0.0909,0.0504,0.0522,0.0638,0.0744,0.0866,0.0957,0.1023,0.1014,0.096,0.0912,0.0912,0.0877,0.0873,0.0845,0.0838,0.0818,0.0912,0.0912,0.0912,0.0525,0.0557,0.0638,0.0746,0.0892,0.0993,0.1057,0.1034,0.0919,0.0913,0.0914,0.0909,0.0854,0.085,0.0801,0.0793,0.0757,0,0]}],[{"header":{"parameterUnit":"m.s-1","parameterCategory":2,"la1":30.2992,"la2":30.254,"lo1":-89.0895,"lo2":-89.0443,"dy":0.0025,"dx":0.0025,"nx":19,"ny":19,"refTime":"2026-04-28T03:00:00:Z","depth":"4","parameterNumber":2,"parameterNumberName":"U-component_of_CURRENTS"},"data":[0,0,0,0.0864,0.0863,0.0861,0.0861,0.096,0.0962,0,0,0,0,0,0,0,0,0,0,0,0.0892,0.0893,0.0864,0.0863,0.0861,0.0861,0.096,0.0962,0,0,0,0,0,0,0,0,0,0,0,0.0892,0.0892,0.0893,0.0863,0.0861,0.0861,0.096,0.0938,0,0,0,0,0,0,0,0,0,0,0.0928,0.095,0.0892,0.0893,0.0863,0.0861,0.0861,0.0935,0.0939,0.0989,0,0.1006,0,0.0975,0.097,0.097,0,0,0,0.0869,0.0947,0.0929,0.0893,0.0863,0.0861,0.0864,0.0937,0.0941,0.0994,0.1006,0.1008,0.0977,0.0971,0.0972,0.1111,0.1112,0,0,0.0869,0.0907,0.0926,0.0932,0.0887,0.0864,0.0863,0.0938,0.0967,0.1007,0.101,0.0978,0.0972,0.0973,0.111,0.1111,0,0,0,0.0866,0.0907,0.0886,0.093,0.0915,0.0863,0.0863,0.0963,0.0952,0.101,0.0979,0.0972,0.0974,0.111,0.1111,0.1122,0,0,0,0.0866,0.0904,0.0887,0.0911,0.0913,0.0927,0.0888,0.0948,0.0953,0.0979,0.0972,0.0975,0.1109,0.111,0.112,0.1126,0,0,0,0.0888,0.0906,0.0909,0.0913,0.0903,0.0924,0.0917,0.0947,0.0935,0.0971,0.0976,0.1109,0.111,0.1119,0.1123,0.1128,0,0,0,0.092,0.0911,0.0911,0.0896,0.0903,0.0896,0.0916,0.0946,0.098,0.0973,0.1109,0.1111,0.1118,0.1122,0.1127,0.0975,0,0,0,0.0906,0.0911,0.0893,0.089,0.0877,0.0895,0.0923,0.0987,0.1019,0.1092,0.1094,0.1121,0.1123,0.1128,0.1058,0,0,0,0,0.0884,0.0884,0.0878,0.088,0.0879,0.0935,0.0976,0.1004,0.1084,0.1042,0.1146,0.1148,0.1149,0.1059,0.1117,0.1117,0.1117,0.1117,0.1117,0.0936,0.0902,0.0894,0.0887,0.0915,0.0976,0.1019,0.1081,0.1106,0.1154,0.1175,0.1212,0.112,0.1196,0.1196,0.1196,0.1196,0.1196,0.1196,0.0907,0.0888,0.0911,0.0887,0.0959,0.101,0.1099,0.1135,0.1199,0.121,0.1211,0.1101,0.1198,0.1198,0.1198,0.1197,0.1197,0.1197,0.1197,0.0927,0.0908,0.0905,0.0906,0.0971,0.1042,0.1101,0.1168,0.122,0.1238,0.1141,0.1223,0.1199,0.1241,0.1242,0.1242,0.1242,0.1242,0.1242,0.0932,0.0922,0.0923,0.0925,0.0944,0.1008,0.1107,0.1138,0.1198,0.1145,0.1247,0.1227,0.1226,0.1203,0.1243,0.1243,0.1242,0.1242,0.1242,0.0887,0.0927,0.0898,0.0907,0.092,0.0939,0.1046,0.1061,0.1075,0.1056,0.1087,0.1095,0.1074,0.1076,0.1047,0.1041,0.104,0.1038,0,0.0888,0.0896,0.0872,0.0859,0.0848,0.0896,0.0884,0.0929,0.097,0.0934,0.109,0.1125,0.1129,0.1107,0.1106,0.1072,0,0,0,0.0858,0.0859,0.0831,0.0824,0.0794,0.0803,0.0873,0.0852,0.096,0.0929,0.0992,0.1004,0.1157,0.1245,0.1231,0.1229,0.1192,0,0]},{"header":{"parameterUnit":"m.s-1","parameterCategory":2,"la1":30.2992,"la2":30.254,"lo1":-89.0895,"lo2":-89.0443,"dy":0.0025,"dx":0.0025,"nx":19,"ny":19,"refTime":"2026-04-28T03:00:00:Z","depth":"4","parameterNumber":3,"parameterNumberName":"V-component_of_CURRENTS"},"data":[0,0,0,0.0192,0.0193,0.0237,0.0237,0.0248,0.0248,0,0,0,0,0,0,0,0,0,0,0,0.0181,0.0181,0.0191,0.0193,0.0237,0.0237,0.0248,0.0248,0,0,0,0,0,0,0,0,0,0,0,0.018,0.0181,0.0182,0.0193,0.0237,0.0237,0.0248,0.0225,0,0,0,0,0,0,0,0,0,0,0.0188,0.0183,0.0181,0.0182,0.0193,0.0237,0.0237,0.0225,0.0227,0.0216,0,0.0232,0,0.0239,0.0248,0.0248,0,0,0,0.019,0.0181,0.0196,0.0182,0.0194,0.0237,0.0216,0.0226,0.0228,0.0219,0.0232,0.0233,0.0239,0.0248,0.0248,0.0268,0.0269,0,0,0.0187,0.0183,0.0195,0.0198,0.0216,0.0215,0.0218,0.0228,0.0232,0.0232,0.0233,0.0239,0.0248,0.0248,0.0268,0.0269,0,0,0,0.0182,0.0181,0.0197,0.0197,0.0208,0.0216,0.0219,0.0232,0.0238,0.0233,0.0239,0.0248,0.0248,0.0268,0.0268,0.0316,0,0,0,0.0181,0.0179,0.0196,0.0193,0.0208,0.0226,0.0223,0.0238,0.0239,0.0239,0.0248,0.0248,0.0268,0.0268,0.0314,0.0339,0,0,0,0.0177,0.0178,0.0187,0.0193,0.0213,0.0226,0.0233,0.0238,0.0242,0.0248,0.0248,0.0268,0.0268,0.0313,0.0336,0.0353,0,0,0,0.0164,0.0186,0.0187,0.0215,0.0213,0.0252,0.0233,0.0256,0.0264,0.0248,0.0268,0.0268,0.0312,0.0335,0.0351,0.0334,0,0,0,0.0184,0.0189,0.0206,0.0208,0.0246,0.0245,0.0282,0.0281,0.0266,0.026,0.0261,0.0315,0.0336,0.0352,0.0365,0,0,0,0,0.0206,0.0223,0.0233,0.0259,0.0279,0.0308,0.031,0.0306,0.0311,0.0274,0.0312,0.0324,0.0333,0.0317,0.0271,0.0271,0.0271,0.0271,0.0271,0.0235,0.0248,0.0283,0.0308,0.0333,0.035,0.0364,0.036,0.0341,0.0349,0.0361,0.0404,0.039,0.0355,0.0356,0.0356,0.0356,0.0356,0.0356,0.0277,0.03,0.0325,0.0363,0.039,0.0423,0.0431,0.042,0.0425,0.0403,0.0408,0.0367,0.0361,0.036,0.0359,0.0359,0.0358,0.0358,0.0358,0.03,0.0311,0.0341,0.0398,0.0448,0.0473,0.0511,0.0497,0.0476,0.0483,0.0458,0.0435,0.0432,0.0488,0.0488,0.0488,0.0488,0.0488,0.0488,0.0304,0.0332,0.0378,0.0436,0.0481,0.0533,0.0561,0.0563,0.0541,0.0513,0.0502,0.0448,0.0444,0.044,0.0491,0.0491,0.049,0.049,0.049,0.0315,0.0338,0.0398,0.0448,0.0543,0.0578,0.0611,0.06,0.0599,0.0574,0.0519,0.0517,0.0496,0.0491,0.0487,0.0556,0.0556,0.0556,0,0.0322,0.0338,0.042,0.0495,0.0568,0.0606,0.0624,0.0624,0.058,0.0566,0.0588,0.0526,0.0523,0.05,0.0495,0.0491,0,0,0,0.033,0.0355,0.0412,0.0494,0.0579,0.0602,0.0626,0.0614,0.0587,0.0581,0.0555,0.0555,0.0535,0.05,0.0463,0.0458,0.0449,0,0]}]]